Regional Weather Roundup
Issued by NWS

Home | Current Version | Previous Version | Graphics & Text | Print | Product List | Glossary On
Versions: 1 2 3 4 5 6 7 8 9 10 11 12 13 14 15 16 17 18 19 20 21 22 23 24 25 26 27 28 29 30 31 32 33 34 35 36 37 38 39 40 41 42 43 44 45 46 47 48 49 50
776
ASUS45 KCYS 202110
RWRWY

WYOMING REGIONAL WEATHER ROUNDUP
NATIONAL WEATHER SERVICE CHEYENNE WY
300 PM MDT SUN MAY 20 2018

NOTE:  "FAIR" INDICATES FEW OR NO CLOUDS BELOW 12,000 FEET
WITH NO SIGNIFICANT WEATHER AND/OR OBSTRUCTIONS TO VISIBILITY.

WYZ001-202200-
YELLOWSTONE NATIONAL PARK

CITY           SKY/WX    TMP DP  RH WIND       PRES   REMARKS
LK YELLOWSTONE   N/A     58  34  40 E5        30.13F
W YELLOWSTONE  NOT AVBL

$$
WYZ002>013-054>058-071-098>099-202200-
NORTHERN WYOMING

CITY           SKY/WX    TMP DP  RH WIND       PRES   REMARKS
JACKSON        CLOUDY    65  40  39 S12       30.05F
CODY           FAIR      66  40  38 E8        30.03F
GREYBULL       FAIR      72  45  37 S12       29.99F
WORLAND        FAIR      68  45  43 SE7G18    30.00F
SHERIDAN       FAIR      71  45  39 SE18      29.99F
BUFFALO        FAIR      67  43  41 SE22G36   30.05F
GILLETTE       FAIR      63  43  48 SE17G25   30.10F
NEWCASTLE      FAIR      55  36  47 SE10G20   30.17S

$$
WYZ014>020-022>026-101>103-202200-
CENTRAL WYOMING

CITY           SKY/WX    TMP DP  RH WIND       PRES   REMARKS
BIG PINEY      FAIR      64  35  34 S8        30.08F
PINEDALE       FAIR      61  36  39 W9        30.10F
DUBOIS         FAIR      61  36  39 E9        30.09F
LANDER         CLOUDY    59  46  62 NE5       30.05F
RIVERTON       FAIR      61  45  55 VRB5      30.07F
CASPER         FAIR      63  45  51 E9        30.07F
DOUGLAS        FAIR      61  45  55 SE22G29   30.11F

$$
WYZ021-027>030-104>119-202200-
SOUTHERN WYOMING

CITY           SKY/WX    TMP DP  RH WIND       PRES   REMARKS
EVANSTON       CLOUDY    58  43  57 S15       30.09R
KEMMERER       FAIR      63  34  34 E7        30.10S
FORT BRIDGER   MOCLDY    66  38  34 SE12      30.12S
ROCK SPRINGS   FAIR      66  33  29 N6        30.06F
DIXON          FAIR      71  32  24 SW9G16    30.08F
RAWLINS        FAIR      67  35  30 VRB7      30.08F
SARATOGA       FAIR      64  32  29 CALM      30.09F
LARAMIE        FAIR      62  40  44 S18G28    30.10F
CHEYENNE       CLOUDY    53  42  66 S12       30.16F
TORRINGTON     PTSUNNY   62  45  53 S9        30.13F
PINE BLUFFS    CLOUDY    55  41  58 S6        30.16F

$$




USA.gov is the U.S. government's official web portal to all federal, state and local government web resources and services.